TimeEDT,TemperatureF,Dew PointF,Humidity,Sea Level PressureIn,VisibilityMPH,Wind Direction,Wind SpeedMPH,Gust SpeedMPH,PrecipitationIn,Events,Conditions,WindDirDegrees,DateUTC
12:15 AM,33.8,30.2,87,30.31,10.0,SW,3.5,-,N/A,,Overcast,220,2013-03-11 04:15:00
12:35 AM,33.8,30.2,87,30.31,10.0,South,8.1,-,N/A,,Overcast,190,2013-03-11 04:35:00
1:15 AM,33.8,30.2,87,30.31,9.0,SW,4.6,-,N/A,,Overcast,220,2013-03-11 05:15:00
1:35 AM,33.8,30.2,87,30.30,9.0,South,5.8,-,N/A,,Overcast,180,2013-03-11 05:35:00
1:55 AM,33.8,30.2,87,30.30,9.0,Calm,Calm,-,N/A,,Overcast,0,2013-03-11 05:55:00
2:35 AM,35.6,30.2,81,30.28,10.0,South,8.1,-,N/A,,Overcast,180,2013-03-11 06:35:00
2:55 AM,35.6,30.2,81,30.28,10.0,SSW,5.8,-,N/A,,Overcast,200,2013-03-11 06:55:00
3:15 AM,35.6,30.2,81,30.28,10.0,SW,5.8,-,N/A,,Overcast,220,2013-03-11 07:15:00
3:35 AM,35.6,30.2,81,30.27,10.0,SSW,5.8,-,N/A,,Overcast,210,2013-03-11 07:35:00
3:55 AM,35.6,30.2,81,30.27,10.0,SSW,3.5,-,N/A,,Overcast,200,2013-03-11 07:55:00
4:15 AM,35.6,30.2,81,30.26,5.0,SSW,3.5,-,N/A,,Overcast,200,2013-03-11 08:15:00
4:35 AM,35.6,30.2,81,30.26,2.5,Calm,Calm,-,N/A,,Overcast,0,2013-03-11 08:35:00
4:55 AM,35.6,30.2,81,30.26,1.8,South,3.5,-,N/A,,Overcast,180,2013-03-11 08:55:00
5:15 AM,35.6,30.2,81,30.26,1.0,Calm,Calm,-,N/A,,Overcast,0,2013-03-11 09:15:00
5:35 AM,35.6,30.2,81,30.26,0.5,Calm,Calm,-,N/A,,Overcast,0,2013-03-11 09:35:00
5:45 AM,35.6,32.0,87,30.26,0.5,Calm,Calm,-,N/A,,Mist,0,2013-03-11 09:45:00
6:45 AM,35.6,32.0,87,30.24,0.5,Calm,Calm,-,N/A,,Mist,0,2013-03-11 10:45:00
7:45 AM,35.6,32.0,87,30.25,0.8,Calm,Calm,-,N/A,,Mist,0,2013-03-11 11:45:00
8:45 AM,37.4,33.8,87,30.25,1.0,Calm,Calm,-,N/A,,Mist,0,2013-03-11 12:45:00
9:10 AM,37.4,35.6,93,30.26,2.0,Calm,Calm,-,N/A,,Overcast,0,2013-03-11 13:10:00
9:45 AM,39.2,35.6,87,30.26,2.0,SW,5.8,-,N/A,,Overcast,220,2013-03-11 13:45:00
10:45 AM,41.0,35.6,81,30.27,3.0,WSW,4.6,-,N/A,,Overcast,250,2013-03-11 14:45:00
11:12 AM,42.8,37.4,81,30.27,6.0,SSW,6.9,-,N/A,,Overcast,200,2013-03-11 15:12:00
11:50 AM,44.6,37.4,76,30.24,10.0,SSW,6.9,-,N/A,,Overcast,210,2013-03-11 15:50:00
12:45 PM,46.4,37.4,71,30.23,10.0,SW,9.2,18.4,N/A,,Scattered Clouds,220,2013-03-11 16:45:00
1:55 PM,48.2,39.2,71,30.21,10.0,SSW,9.2,-,N/A,,Mostly Cloudy,200,2013-03-11 17:55:00
2:45 PM,48.2,41.0,76,30.20,10.0,South,8.1,-,N/A,,Partly Cloudy,190,2013-03-11 18:45:00
3:45 PM,48.2,41.0,76,30.19,10.0,South,13.8,-,N/A,,Partly Cloudy,190,2013-03-11 19:45:00
4:45 PM,48.2,39.2,71,30.18,9.0,SSW,11.5,18.4,N/A,,Partly Cloudy,200,2013-03-11 20:45:00
5:45 PM,46.4,39.2,76,30.16,9.0,South,12.7,19.6,N/A,,Partly Cloudy,190,2013-03-11 21:45:00
6:45 PM,46.4,39.2,76,30.15,9.0,South,12.7,-,N/A,,Overcast,180,2013-03-11 22:45:00
7:45 PM,44.6,39.2,81,30.15,10.0,South,11.5,-,N/A,,Overcast,170,2013-03-11 23:45:00
9:15 PM,44.6,41.0,87,30.15,10.0,SSE,8.1,-,N/A,,Overcast,160,2013-03-12 01:15:00
9:35 PM,44.6,41.0,87,30.14,10.0,SSE,10.4,-,N/A,,Overcast,160,2013-03-12 01:35:00
9:55 PM,44.6,41.0,87,30.15,10.0,South,9.2,-,N/A,,Overcast,170,2013-03-12 01:55:00
10:15 PM,44.6,41.0,87,30.14,10.0,SSE,9.2,-,N/A,,Overcast,160,2013-03-12 02:15:00
10:35 PM,-9999,-9999,N/A,30.13,8.0,SSE,10.4,-,N/A,,Overcast,160,2013-03-12 02:35:00
10:55 PM,44.6,42.8,93,30.13,7.0,SSE,9.2,-,N/A,,Overcast,150,2013-03-12 02:55:00
11:15 PM,44.6,42.8,93,30.12,6.0,South,10.4,-,N/A,,Overcast,170,2013-03-12 03:15:00
11:35 PM,44.6,42.8,93,30.12,5.0,South,9.2,-,N/A,,Overcast,180,2013-03-12 03:35:00
11:55 PM,46.4,42.8,87,30.12,5.0,South,11.5,-,N/A,,Overcast,180,2013-03-12 03:55:00